EW6762 Weather Reports


time (UTC)temp
C
wind
direction
speed
KPH
gust
KPH
rain 1hr
cm
rain 24hr
cm
rain mn
cm
humidity
%
barometer
mb
20260507140314 21 225 8.0 19.3 0.00 5.41 1.30 94 1010.9
20260507135330 21 178 4.8 11.3 0.00 5.41 1.30 95 1010.8
20260507134313 21 235 4.8 14.5 0.00 5.41 1.30 95 1010.9
20260507133336 21 221 6.4 12.9 0.00 5.41 1.30 95 1010.5
20260507132310 21 190 4.8 11.3 0.00 5.41 1.30 96 1010.4
20260507131332 21 265 4.8 11.3 0.00 5.41 1.30 96 1010.4
20260507130327 21 121 4.8 9.7 0.00 5.41 1.30 95 1010.2
20260507125320 21 184 4.8 12.9 0.10 5.41 1.30 95 1010.3
20260507124325 21 148 6.4 11.3 0.20 5.41 1.30 96 1010.4
20260507123317 21 181 4.8 9.7 0.41 5.41 1.30 96 1010.6
20260507122310 21 138 6.4 12.9 0.51 5.41 1.30 96 1010.9
20260507121310 21 139 6.4 14.5 0.61 5.41 1.30 96 1011.1
20260507120327 21 93 8.0 19.3 0.71 5.41 1.30 96 1011.5
20260507115329 21 187 9.7 20.9 0.61 5.31 1.27 96 1011.3
20260507114321 21 158 6.4 14.5 0.51 5.11 1.22 96 1011.6
20260507113319 21 200 6.4 16.1 0.51 5.00 1.19 96 1011.5
20260507112322 21 134 8.0 17.7 0.41 4.90 1.17 96 1011.4
20260507111319 21 130 8.0 14.5 0.41 4.80 1.14 95 1011.3
20260507110321 21 165 9.7 35.4 0.41 4.70 1.12 96 1011.8
20260507105334 21 118 6.4 22.5 0.61 4.70 1.12 96 1011.3
20260507104315 21 99 9.7 17.7 0.71 4.60 1.09 96 1011.3
20260507103310 21 159 8.0 17.7 0.71 4.50 1.07 95 1011.3
20260507102309 21 121 9.7 20.9 0.89 4.50 1.07 95 1011.2
20260507101325 21 116 8.0 16.1 0.89 4.39 1.04 95 1011.0
20260507100327 21 96 9.7 20.9 0.89 4.29 1.02 95 1011.3
20260507095324 21 166 11.3 17.7 0.89 4.09 0.97 95 1010.9
20260507094319 21 129 4.8 11.3 0.99 3.91 0.91 95 1011.1
20260507093321 21 140 4.8 11.3 1.19 3.81 0.89 95 1011.6
20260507092315 21 167 3.2 11.3 1.50 3.61 0.84 95 1011.8
20260507091311 21 195 3.2 12.9 1.91 3.51 0.81 95 1011.4
20260507090314 21 111 4.8 11.3 2.11 3.40 0.79 94 1011.0
20260507085331 21 136 6.4 12.9 2.11 3.20 0.74 95 1011.1
20260507084321 21 96 3.2 11.3 1.91 2.90 0.66 94 1011.4
20260507083317 21 186 4.8 11.3 1.60 2.49 0.56 94 1012.2
20260507082319 21 244 4.8 11.3 1.19 2.11 0.46 94 1012.5
20260507081333 21 201 4.8 11.3 0.79 1.60 0.33 94 1012.8
20260507080312 21 143 3.2 8.0 0.51 1.30 0.25 94 1012.8
20260507075327 21 171 3.2 8.0 0.30 1.09 0.20 94 1011.9
20260507074330 21 128 3.2 8.0 0.20 0.99 0.18 94 1011.8
20260507073339 21 163 3.2 8.0 0.10 0.89 0.15 94 1012.1
20260507072316 21 178 3.2 6.4 0.10 0.89 0.15 93 1012.4
20260507071330 21 253 4.8 8.0 0.00 0.79 0.13 93 1012.6
20260507070332 21 216 3.2 6.4 0.00 0.79 0.13 93 1012.7
20260507065333 21 170 3.2 6.4 0.00 0.79 0.13 93 1012.6
20260507064313 21 153 1.6 8.0 0.00 0.79 0.13 93 1012.3
20260507063330 21 155 3.2 6.4 0.00 0.79 0.13 93 1012.5
20260507062323 21 133 3.2 8.0 0.00 0.79 0.13 93 1012.7
20260507061315 21 159 4.8 8.0 0.00 0.79 0.13 92 1012.7
20260507060316 21 136 4.8 8.0 0.10 0.79 0.13 92 1012.4
20260507055350 21 148 3.2 6.4 0.20 0.79 0.13 92 1012.4
20260507054322 21 65 1.6 8.0 0.51 0.79 0.13 92 1012.4
20260507053322 21 145 3.2 6.4 0.51 0.79 0.13 92 1012.9
20260507052311 21 73 3.2 6.4 0.51 0.79 0.13 91 1013.0
20260507051329 21 184 3.2 8.0 0.51 0.79 0.13 91 1013.8
20260507050325 21 144 4.8 8.0 0.41 0.71 0.10 90 1013.9
20260507045316 21 132 4.8 9.7 0.41 0.61 0.08 90 1013.8
20260507044327 22 148 4.8 8.0 0.10 0.30 0.00 89 1014.1
20260507043326 22 185 3.2 6.4 0.10 0.30 0.00 89 1013.9
20260507042317 22 211 3.2 6.4 0.10 0.30 0.00 88 1013.8
20260507041310 22 200 3.2 4.8 0.30 0.30 0.00 88 1013.6
20260507040308 22 237 1.6 4.8 0.30 0.30 0.00 88 1013.4
20260507035321 22 155 3.2 6.4 0.20 0.20 0.05 85 1013.2
20260507034321 22 197 3.2 4.8 0.20 0.20 0.05 83 1013.4
20260507033317 23 148 1.6 9.7 0.20 0.20 0.05 81 1013.3
20260507032318 23 184 4.8 8.0 0.10 0.10 0.03 77 1013.9
20260507031318 24 170 3.2 11.3 0.00 0.00 0.00 72 1014.2
20260507030320 24 132 6.4 11.3 0.00 0.00 0.00 69 1013.8
20260507025314 24 190 4.8 8.0 0.00 0.00 0.00 70 1013.6
20260507024311 24 196 1.6 8.0 0.00 0.00 0.00 70 1013.1
20260507023313 24 113 3.2 9.7 0.00 0.00 0.00 70 1013.2
20260507022309 24 159 4.8 8.0 0.00 0.00 0.00 69 1013.0
20260507021311 24 120 1.6 6.4 0.00 0.00 0.00 69 1013.1
20260507020328 25 153 3.2 11.3 0.00 0.00 0.00 68 1013.1
20260507015332 25 146 4.8 8.0 0.00 0.00 0.00 69 1013.1
20260507014325 25 152 4.8 8.0 0.00 0.00 0.00 68 1013.1
20260507013327 25 136 4.8 9.7 0.00 0.00 0.00 68 1013.1
20260507012323 25 150 3.2 8.0 0.00 0.00 0.00 67 1013.3
20260507011320 25 146 4.8 8.0 0.00 0.00 0.00 67 1013.1
20260507010321 25 128 3.2 12.9 0.00 0.00 0.00 66 1013.1
20260507005317 25 158 3.2 9.7 0.00 0.00 0.00 65 1013.1
20260507004313 26 163 6.4 9.7 0.00 0.00 0.00 65 1013.2
20260507003335 26 191 4.8 9.7 0.00 0.00 0.00 64 1013.1
20260507002319 26 191 4.8 9.7 0.00 0.00 0.00 63 1013.2
20260507001314 26 164 4.8 14.5 0.00 0.00 0.00 63 1013.2
20260507000309 26 266 4.8 14.5 0.00 0.00 0.00 62 1013.1
20260506235309 27 180 6.4 12.9 0.00 0.00 0.00 61 1012.9
20260506234353 27 99 4.8 12.9 0.00 0.00 0.00 60 1012.8
20260506233327 27 194 8.0 16.1 0.00 0.00 0.00 60 1012.7
20260506232324 27 163 6.4 16.1 0.00 0.00 0.00 59 1012.8
20260506231328 28 232 6.4 17.7 0.00 0.00 0.00 58 1012.8
20260506230343 28 196 9.7 16.1 0.00 0.00 0.00 57 1013.0
20260506225324 28 170 8.0 19.3 0.00 0.00 0.00 57 1012.8
20260506224346 28 173 6.4 14.5 0.00 0.00 0.00 58 1012.7
20260506223320 28 155 8.0 17.7 0.00 0.00 0.00 58 1012.7
20260506222316 28 190 6.4 17.7 0.00 0.00 0.00 57 1012.6
20260506221319 28 101 6.4 16.1 0.00 0.00 0.00 57 1012.6
20260506220314 28 180 8.0 16.1 0.00 0.00 0.00 56 1012.5
20260506215334 28 166 6.4 22.5 0.00 0.00 0.00 56 1012.6
20260506214309 28 130 11.3 22.5 0.00 0.00 0.00 55 1012.8
20260506213309 29 134 8.0 24.1 0.00 0.00 0.00 55 1012.9
20260506212330 29 175 11.3 19.3 0.00 0.00 0.00 55 1013.0
20260506211324 29 135 12.9 29.0 0.00 0.00 0.00 56 1012.8
20260506210320 29 247 6.4 19.3 0.00 0.00 0.00 56 1012.7
20260506205320 28 189 8.0 17.7 0.00 0.00 0.00 57 1012.7
20260506204316 28 152 11.3 30.6 0.00 0.00 0.00 58 1012.8
20260506203334 27 111 4.8 19.3 0.00 0.00 0.00 60 1012.9
20260506202309 27 143 8.0 22.5 0.00 0.00 0.00 60 1013.2
20260506201322 27 140 4.8 8.0 0.00 0.00 0.00 62 1013.0
20260506200324 27 161 4.8 9.7 0.00 0.00 0.00 61 1012.4
20260506195313 27 191 6.4 20.9 0.00 0.00 0.00 60 1013.5
20260506194309 27 258 6.4 25.7 0.00 0.00 0.00 58 1014.4
20260506193324 28 224 12.9 22.5 0.00 0.00 0.00 58 1014.6
20260506192325 28 196 8.0 24.1 0.00 0.00 0.00 57 1014.6
20260506191319 28 224 11.3 17.7 0.00 0.00 0.00 58 1014.6
20260506190314 28 242 8.0 22.5 0.00 0.00 0.00 58 1014.6
20260506185315 28 202 11.3 27.4 0.00 0.00 0.00 57 1014.7
20260506184311 28 251 9.7 17.7 0.00 0.00 0.00 55 1014.9
20260506183332 28 134 11.3 22.5 0.00 0.00 0.00 55 1015.0
20260506182327 29 283 11.3 25.7 0.00 0.00 0.00 55 1015.2
20260506181324 28 199 8.0 25.7 0.00 0.00 0.00 57 1015.1
20260506180317 28 249 8.0 24.1 0.00 0.00 0.00 57 1015.4
20260506175312 28 114 9.7 25.7 0.00 0.00 0.00 59 1015.1
20260506174316 28 167 8.0 20.9 0.00 0.00 0.00 61 1015.5
20260506173323 27 170 8.0 16.1 0.00 0.00 0.00 61 1015.5
20260506172313 27 133 8.0 16.1 0.00 0.00 0.00 61 1015.8
20260506171312 27 156 11.3 27.4 0.00 0.00 0.00 60 1015.8
20260506170319 27 156 6.4 16.1 0.00 0.00 0.00 59 1015.8
20260506165316 27 205 6.4 30.6 0.00 0.00 0.00 60 1015.9
20260506164336 27 152 9.7 20.9 0.00 0.00 0.00 60 1015.9
20260506163329 26 144 4.8 14.5 0.00 0.00 0.00 63 1015.7
20260506162323 26 209 9.7 20.9 0.00 0.00 0.00 61 1015.7
20260506161325 26 211 6.4 24.1 0.00 0.00 0.00 62 1015.9
20260506160315 26 155 12.9 25.7 0.00 0.00 0.00 62 1016.0
20260506155332 26 140 8.0 24.1 0.00 0.00 0.00 63 1015.9
20260506154324 25 166 8.0 20.9 0.00 0.00 0.00 64 1015.9
20260506153322 25 153 6.4 19.3 0.00 0.00 0.00 64 1015.8
20260506152317 25 147 8.0 25.7 0.00 0.00 0.00 63 1015.3
20260506151310 25 137 11.3 27.4 0.00 0.00 0.00 63 1015.8
20260506150309 25 142 11.3 19.3 0.00 0.00 0.00 63 1016.0
20260506145320 25 159 8.0 17.7 0.00 0.00 0.00 64 1016.1
20260506144319 24 177 9.7 22.5 0.00 0.00 0.00 65 1016.2
20260506143315 24 218 9.7 19.3 0.00 0.00 0.00 65 1016.2
20260506142313 23 161 6.4 19.3 0.00 0.00 0.00 66 1016.2
20260506141326 23 83 9.7 24.1 0.00 0.00 0.00 67 1016.4